NOAA 16 DEB, 41425

Orbit data source: Space-Track

NOAA 16 DEB, 41425 is space debris in SSO originally from a launch on Thu, 21 Sep 2000 UTC launched from the Air Force Western Test Range (AFWTR). Debris objects in space refer to the collection of defunct objects orbiting the Earth. Examples of debris include non-operational satellites, rocket bodies, and fragments generated from explosions, collisions, or faulty payload assembly.

Loading next visibility...
Identifier
41425, 2000-055LE
Orbit
SSO
Country
Flag of USUS
Related business
Manufacturer
Unknown
Mission
Spacecraft
Bus & Motor
Unknown
Mass
Unknown
Launch date (UTC)
2000-09-21 (25 years ago)
Launch vehicle
Unknown
Launch site
Air Force Western Test Range (AFWTR)
Object type
Payload
Rocket body
Debris
Shape & HBR
Unknown shape, 0.1 m
Radar Cross Section
Small (<0.1 m²)

Expand to show TLE details & history
Last TLE update: 1 day ago

TLE from 1 day ago
0 NOAA 16 DEB
1 41425U 00055LE  25342.08321330  .00015438  00000-0  33768-2 0  9992
2 41425  98.9752 214.5820 0035766 248.5541 111.1839 14.57435465513698
Epoch: 2025-12-08T01:59Z
TLE epoch observation values (Epoch: 2025-12-08T01:59:49.629Z)
Latitude
Longitude
107.53787°
Altitude
713.654 km
Speed
7.494 km/s
True Right ascension
14h 18m 19s
True Declination
0° 00' 00"
Sunlit
Object was in daylight at epoch
Visualization orbit readout
Latitude
Unknown
Longitude
Unknown
Altitude
Unknown
Speed
Unknown
Apparent Right ascension
Unknown
Apparent Declination
Unknown
Sunlit
N/A
Visualization observer readout
Local Sidereal Time
04:10:32
Azimuth
Unknown
Elevation
Unknown
Doppler factor
Unknown
Orbital elements
Apogee altitude
723.899 km
Perigee altitude
673.278 km
Semi-major axis
7,076.726 km
Eccentricity
0.00358
Inclination
98.9752°
RAAN
214.582°
Arg. of periapsis
248.5541°
True anomaly
111.56543°
Mean anomaly
111.1839°
Eccentric anomaly
111.37473°
Mean motion
3.64582 °/min
Orbital period
98.74 mins
BSTAR
0.0033768
Loading maneuver chart data...
Computing Atmospheric mass density...
Loading historical data...
Loading historical data...
Loading historical data...
Loading historical data...
Loading historical data...
Loading historical data...
Loading historical data...

Documentation

Showing up to 5 results
|